Regional Weather Roundup
Issued by NWS

Home | Current Version | Previous Version | Graphics & Text | Print | Product List | Glossary On
Versions: 1 2 3 4 5 6 7 8 9 10 11 12 13 14 15 16 17 18 19 20 21 22 23 24 25 26 27 28 29 30 31 32 33 34 35 36 37 38 39 40 41 42 43 44 45 46 47 48 49 50
000
ASUS43 KMKX 290300
RWRWI

WISCONSIN REGIONAL WEATHER ROUNDUP
NATIONAL WEATHER SERVICE MILWAUKEE/SULLIVAN WI
1000 PM CDT MON JUL 28 2014

NOTE: "FAIR" INDICATES FEW OR NO CLOUDS BELOW 12,000 FEET WITH NO
SIGNIFICANT WEATHER AND/OR OBSTRUCTIONS TO VISIBILITY.

WIZ001-002-006>008-014>016-023>028-290400-
NORTHWEST WISCONSIN

CITY           SKY/WX    TMP DP  RH WIND       PRES   REMARKS
SUPERIOR ARPT  CLOUDY    64  57  77 NW6       30.09S
ASHLAND        PTCLDY    58  57  97 CALM      30.08R
HAYWARD        MOCLDY    64  54  69 CALM      30.11R
SIREN          CLEAR     61  55  81 W3        30.12S
RICE LAKE      CLEAR     61  55  81 CALM      30.13S
LADYSMITH      CLOUDY    64  57  76 W6        30.12S
EAU CLAIRE     NOT AVBL
MENOMONIE      CLEAR     65  55  71 W3        30.11S
NEW RICHMOND   CLEAR     62  55  76 W5        30.14R
OSCEOLA        CLEAR     61  58  91 CALM      30.15S
$$

WIZ003>005-009-010-017-018-290400-
NORTH CENTRAL WISCONSIN

CITY           SKY/WX    TMP DP  RH WIND       PRES   REMARKS
WOODRUFF       MOCLDY    59  55  84 CALM      30.09S
RHINELANDER    MOCLDY    59  57  93 W6        30.09S
EAGLE RIVER    FOG       56  56 100 CALM      30.07S VSB 1
LAND O LAKES   MOCLDY    58  56  91 W5        30.08S
PHILLIPS       PTCLDY    62  56  80 CALM      30.09S
TOMAHAWK       CLOUDY    58  55  87 CALM      30.09S
MEDFORD        CLEAR     59  55  84 W5        30.10S
MERRILL        MOCLDY    60  57  89 W3        30.08S
$$

WIZ029-030-035-036-043>047-290400-
CENTRAL WISCONSIN

CITY           SKY/WX    TMP DP  RH WIND       PRES   REMARKS
WAUSAU         PTCLDY    62  56  80 NW5       30.07S
MOSINEE        PTCLDY    61  55  82 W5        30.10S
MARSHFIELD     MOCLDY    62  54  74 NW5       30.09S
STEVENS POINT  CLOUDY    64  53  68 W3        30.09S
WAUPACA        CLOUDY    67  53  59 CALM      30.06S
WAUTOMA        NOT AVBL
WISC RAPIDS    CLOUDY    64  56  75 NW6       30.10R
CAMP DOUGLAS   NOT AVBL
$$

WIZ011>013-019>022-031-037>040-048>050-290400-
NORTHEAST WISCONSIN

CITY           SKY/WX    TMP DP  RH WIND       PRES   REMARKS
ANTIGO         CLOUDY    60  54  79 NW6       30.08S
STURGEON BAY   CLOUDY    57  48  72 SW5       30.03S
GREEN BAY      CLOUDY    62  56  80 W5        30.04S
MANITOWOC      NOT AVBL
APPLETON       MOCLDY    63  54  72 W6        30.05F
CLINTONVILLE   CLOUDY    64  54  68 W5        30.05S
OSHKOSH        PTCLDY    64  54  69 W5        30.05S
$$

WIZ032>034-041-042-053>061-290400-
SOUTHWEST WISCONSIN

CITY           SKY/WX    TMP DP  RH WIND       PRES   REMARKS
LA CROSSE      CLEAR     64  56  75 CALM      30.11R
SPARTA         CLEAR     58  54  88 CALM      30.12R
VIROQUA        FAIR      59  54  82 W3        30.13S
BOSCOBEL       CLEAR     58  55  90 CALM      30.12R
PRAIRIE DU CHI CLEAR     60  54  78 CALM      30.12R
PLATTEVILLE    FAIR      62  53  73 NW5       30.13R
$$

WIZ056-057-062-063-064-067-068-290400-
SOUTH CENTRAL WISCONSIN

CITY           SKY/WX    TMP DP  RH WIND       PRES   REMARKS
BARABOO/DELLS  MOCLDY    62  51  67 W3        30.09S
LONE ROCK      NOT AVBL
WATERTOWN      CLOUDY    66  55  66 W3        30.06S
MADISON        MOCLDY    65  52  62 W5        30.08S
MIDDLETON      MOCLDY    62  52  69 W6        30.09S
MONROE         CLEAR     63  52  67 W9        30.10R
JANESVILLE     PTCLDY    63  52  67 W5        30.08R
$$

WIZ051-052-058>065-066-070>072-290400-
SOUTHEAST WISCONSIN

CITY           SKY/WX    TMP DP  RH WIND       PRES   REMARKS
MILWAUKEE      CLOUDY    60  50  69 E7        30.07R
WAUKESHA       CLOUDY    64  52  63 NW3       30.07R
MILWAUKEE/TIMM CLOUDY    63  50  63 CALM      30.06S
RACINE         CLOUDY    60  50  69 S6        30.08R
BURLINGTON     MOCLDY    60  54  79 W6        30.06S
KENOSHA        CLOUDY    60  51  72 S3        30.07R
FOND DU LAC    PTCLDY    63  52  67 W6        30.06S
SHEBOYGAN      CLEAR     55  52  89 SW3       30.05S
WEST BEND      PTCLDY    59  54  82 CALM      30.06R
JUNEAU         MOCLDY    64  52  64 NW3       30.07S
$$

LSZ147-162-290400-
LAKE SUPERIOR

STATION/POSITION TIME  TEMP    WIND        PRES    WAVE
                       AIR SEA DIR/SP/G            HT/PER
                 (UTC) (F)     (DEG/KT/KT) (MB)    (FT/S)
W MID LAKE BUOY  0150   51 44  280/  6/  6 1017.6R   0
PORT WING        0200   66     270/  8/ 12 1018.3R
SAXON HARBOR     0200          200/  3/  6 1018.3R
$$

LMZ867-665-643>646-290400-
LAKE MICHIGAN

STATION/POSITION TIME  TEMP    WIND        PRES    WAVE
                       AIR SEA DIR/SP/G            HT/PER
                 (UTC) (F)     (DEG/KT/KT) (MB)    (FT/S)
N MID LAKE BUOY  0150   56 54  220/  6/  6 1015.8R   1/ 3
NORTHPORT PIER   0200   62     230/  2/  5 1015.9S
SISTER BAY       0210   63        CALM       N/A
ALGOMA LAKESHORE 0221             CALM       N/A
KEWAUNEE LAKESHO 0200   54     290/  2/  2 1017.8R
SHEBOYGAN LAKESH 0200   60     190/  8/  8 1017.8F
PORT WASHINGTON  0200   61     190/  3/  4 1018.3S
ATWATER BUOY     0200   61     150/  4     1018.6R
MILWAUKEE LAKESH 0200   61     150/  5/  5   N/A
S MID LAKE BUOY  0150   60 60   40/  6/  6 1017.7S   3/ 5
KENOSHA   LAKESH 0200   61     200/  3/  6 1017.9R
$$

TC  - TEMPERATURE IN CELSIUS
VSB - VISIBILITY IN STATUTE MILES
WCI - WIND CHILL INDEX
HX  - HEAT INDEX




USA.gov is the U.S. government's official web portal to all federal, state and local government web resources and services.